This is the latest recevied weather packets stored in our database for station/object K3HW. If no packets are shown the sender has not sent any weather packets the latest 10 day(s).
| Time | Temp. | Humidity | Pressure | Rain* | Wind** | Luminosity | Snow |
|---|---|---|---|---|---|---|---|
| 1777702056 | 10.56° C | 77% | 1015.5 hPa | 0 mm | - | 0 W/m² | - |
| 1777701752 | 10.56° C | 79% | 1015.6 hPa | 0 mm | - | 0 W/m² | - |
| 1777701450 | 10.56° C | 80% | 1015.8 hPa | 0 mm | - | 0 W/m² | - |
| 1777701148 | 10.56° C | 79% | 1015.8 hPa | 0 mm | - | 0 W/m² | - |
| 1777700847 | 10.56° C | 79% | 1015.7 hPa | 0 mm | - | 0 W/m² | - |
| 1777700544 | 10.56° C | 79% | 1015.9 hPa | 0 mm | - | 0 W/m² | - |
| 1777700241 | 10.56° C | 79% | 1015.9 hPa | 0 mm | - | 0 W/m² | - |
| 1777699938 | 10.56° C | 79% | 1016 hPa | 0 mm | - | 0 W/m² | - |
| 1777699636 | 10.56° C | 78% | 1016.1 hPa | 0 mm | - | 0 W/m² | - |
| 1777699334 | 10.56° C | 78% | 1016 hPa | 0 mm | - | 0 W/m² | - |
| 1777699032 | 10.56° C | 78% | 1016.1 hPa | 0 mm | - | 0 W/m² | - |
| 1777698730 | 11.11° C | 78% | 1015.9 hPa | 0 mm | - | 0 W/m² | - |
| 1777698426 | 11.11° C | 77% | 1016 hPa | 0 mm | - | 0 W/m² | - |
| 1777698122 | 11.11° C | 74% | 1016 hPa | 0 mm | - | 0 W/m² | - |
| 1777697819 | 11.11° C | 73% | 1015.6 hPa | 0 mm | - | 0 W/m² | - |
| 1777697516 | 11.67° C | 71% | 1015.9 hPa | 0 mm | - | 0 W/m² | - |
| 1777697213 | 11.67° C | 70% | 1016 hPa | 0 mm | - | 0 W/m² | - |
| 1777696909 | 11.67° C | 69% | 1016 hPa | 0 mm | - | 0 W/m² | - |
| 1777696607 | 11.67° C | 68% | 1016.1 hPa | 0 mm | - | 0 W/m² | - |
| 1777696304 | 11.67° C | 69% | 1016 hPa | 0 mm | - | 0 W/m² | - |
| 1777696004 | 11.67° C | 67% | 1015.8 hPa | 0 mm | - | 0 W/m² | - |
| 1777695701 | 11.67° C | 67% | 1015.8 hPa | 0 mm | - | 0 W/m² | - |
| 1777695399 | 11.67° C | 67% | 1015.7 hPa | 0 mm | - | 0 W/m² | - |
| 1777695096 | 11.67° C | 67% | 1015.6 hPa | 0 mm | - | 0 W/m² | - |
| 1777694792 | 11.67° C | 67% | 1015.7 hPa | 0 mm | - | 0 W/m² | - |
* Rain latest hour (hover to see other rain measurements)
** Current wind speed in m/s (hover to see current wind gust speed)